This is the latest recevied weather packets stored in our database for station/object N3TJJ-2. If no packets are shown the sender has not sent any weather packets the latest 10 day(s).
| Time | Temp. | Humidity | Pressure | Rain* | Wind** | Luminosity | Snow |
|---|---|---|---|---|---|---|---|
| 1788420289 | 21.67° C | 21% | 1018.2 hPa | 0.25 mm | - | - | - |
| 1788419938 | 21.11° C | 21% | 1018.1 hPa | 0.25 mm | - | - | - |
| 1788419570 | 21.11° C | 21% | 1017.9 hPa | 0.25 mm | - | - | - |
| 1788419210 | 21.11° C | 21% | 1017.9 hPa | 0.25 mm | - | - | - |
| 1788418848 | 21.11° C | 21% | 1018 hPa | 0.25 mm | - | - | - |
| 1788418492 | 21.11° C | 21% | 1018.1 hPa | 0.25 mm | - | - | - |
| 1788418159 | 21.11° C | 21% | 1018.3 hPa | 0.25 mm | - | - | - |
| 1788417771 | 21.11° C | 21% | 1018.3 hPa | 0.25 mm | - | - | - |
| 1788417409 | 21.11° C | 21% | 1018.2 hPa | 0.25 mm | - | - | - |
| 1788417048 | 21.11° C | 21% | 1018.3 hPa | 0 mm | - | - | - |
| 1788416709 | 21.11° C | 21% | 1018.4 hPa | 0 mm | - | - | - |
| 1788416338 | 21.11° C | 21% | 1018.5 hPa | 0 mm | - | - | - |
| 1788415971 | 21.11° C | 21% | 1018.7 hPa | 1.27 mm | - | - | - |
| 1788415609 | 21.11° C | 21% | 1018.8 hPa | 11.18 mm | - | - | - |
| 1788415249 | 21.11° C | 21% | 1018.8 hPa | 14.22 mm | - | - | - |
| 1788414892 | 21.11° C | 21% | 1018.9 hPa | 14.22 mm | - | - | - |
| 1788414558 | 21.11° C | 22% | 1018.8 hPa | 14.22 mm | - | - | - |
| 1788414171 | 21.11° C | 21% | 1019 hPa | 14.22 mm | - | - | - |
| 1788413852 | 21.11° C | 21% | 1019.1 hPa | 14.22 mm | - | - | - |
| 1788413474 | 21.11° C | 22% | 1019.1 hPa | 14.22 mm | - | - | - |
| 1788413089 | 21.11° C | 24% | 1019.5 hPa | 14.22 mm | - | - | - |
| 1788412737 | 21.11° C | 25% | 1019.6 hPa | 14.22 mm | - | - | - |
| 1788412371 | 21.67° C | 24% | 1019.8 hPa | 12.95 mm | - | - | - |
| 1788412009 | 22.22° C | 24% | 1021.2 hPa | 3.05 mm | - | - | - |
| 1788411649 | 22.78° C | 23% | 1020.4 hPa | 0 mm | - | - | - |
* Rain latest hour (hover to see other rain measurements)
** Current wind speed in m/s (hover to see current wind gust speed)